Regional Weather Roundup
Issued by NWS Wakefield, VA

Current Version | Previous Version | Text Only | Print | Product List | Glossary Off
Versions: 1 2 3 4 5 6 7 8 9 10 11 12 13 14 15 16 17 18 19 20 21 22 23 24 25 26 27 28 29 30 31 32 33 34 35 36 37 38 39 40 41 42 43 44 45 46 47 48 49 50

000
ASUS41 KAKQ 220215
RWRAKQ

REGIONAL WEATHER ROUNDUP
NATIONAL WEATHER SERVICE WAKEFIELD VA
1000 PM EDT SAT OCT 21 2017

Note: "fair" indicates few or no clouds below 12,000 feet with no
significant weather and/or obstructions to visibility. * = Denotes
station may not report precipitation (e.g., rain,snow,etc.),
thunder or fog.

VAZ042-051-052>054-056-220300-
NORTHERN VIRGINIA

CITY           SKY/WX    TMP DP  RH WIND       PRES   REMARKS
WASH NATIONAL  CLOUDY    65  52  62 CALM      30.36S
DULLES         PTCLDY    53  47  79 CALM      30.36R
FORT BELVOIR   CLOUDY    54  51  92 CALM      30.36R
QUANTICO       CLOUDY    58  55  90 NW6       30.37R
FREDERICKSBRG* CLOUDY    56  52  85 CALM      30.35S
STAFFORD*      PTCLDY    51  51 100 CALM      30.40S
WARRENTON      CLOUDY    48  43  80 CALM      30.36R
CULPEPER*      CLOUDY    54  47  76 CALM      30.37S
MANASSAS*      CLEAR     51  47  86 CALM      30.36S
LEESBURG*      CLOUDY    55  52  88 CALM      30.37S
WINCHESTER     PTCLDY    52  45  76 CALM      30.35S
FRONT ROYAL*   PTCLDY    63  46  55 CALM      30.34S
LURAY*         PTCLDY    55  52  88 CALM      30.35S
$$

VAZ048-049-060>072-079>083-220300-
CENTRAL AND SOUTH CENTRAL VIRGINIA

CITY           SKY/WX    TMP DP  RH WIND       PRES   REMARKS
RICHMOND       MOCLDY    60  51  72 SE6       30.36R
CHESTERFIELD*  NOT AVBL
PETERSBURG*    CLOUDY    55  53  92 CALM      30.36S
HANOVER        CLOUDY    58  55  90 CALM      30.37R
TAPPAHANNOCK*  CLOUDY    56  56 100 CALM      30.37S
QUINTON*       FAIR      58  58 100 CALM      30.36R
CHARLOTTSVILLE CLEAR     59  55  87 CALM      30.35R
GORDONSVILLE*  CLOUDY    55  54  95 CALM      30.35S
ORANGE*        CLOUDY    54  50  87 CALM      30.35S
LOUISA*        CLOUDY    54  52  94 CALM      30.35S
BUMPASS*       FAIR      59  54  83 S3        30.35S
FARMVILLE*     PTCLDY    62  56  81 CALM      30.34S
CREWE*         FAIR      56  56 100 CALM      30.35S
FORT PICKETT*  FAIR      62  56  80 S8        30.35S
CHASE CITY*    FAIR      59  57  92 CALM      30.35R
CLARKSVILLE*   FAIR      59  59 100 CALM      30.34S
SOUTH HILL*    CLOUDY    56  56  97 CALM      30.40S
LAWRENCEVILLE* FAIR      61  56  82 CALM      30.35S
EMPORIA*       CLOUDY    59  55  88 CALM      30.37R
$$

VAZ088>098-220300-
SOUTHEAST VIRGINIA

CITY           SKY/WX    TMP DP  RH WIND       PRES   REMARKS
NORFOLK        MOCLDY    61  57  87 CALM      30.36R
VIRGINIA BEACH MOCLDY    58  53  84 CALM      30.35S
NORFOLK NAVAL  CLOUDY    58  54  86 CALM      30.37S
WEST POINT*    PTCLDY    55  55 100 CALM      30.37F
SALUDA*        FAIR      56  55  98 CALM      30.36S
NEWPORT NEWS   PTCLDY    56  53  90 CALM      30.36S
LANGLEY AFB    CLOUDY    59  57  94 CALM      30.36S
FORT EUSTIS    PTCLDY    60  53  79 CALM      30.34S
WILLIAMSBURG*  MOCLDY    61  57  88 CALM      30.37S
HR EXEC AP*    NOT AVBL
FRANKLIN*      CLOUDY    56  53  87 CALM      30.37R
US460-WAKEFLD  CLOUDY    57  55  93 CALM      30.36S
$$

VAZ020-022-025-037-045-220300-
WEST CENTRAL AND SOUTHWEST VIRGINIA

CITY           SKY/WX    TMP DP  RH WIND       PRES   REMARKS
STAUNTON*      PTCLDY    54  49  83 CALM      30.37S
WAYNESBORO*    CLEAR     56  52  85 SW9       30.37S
HOT SPRINGS VA CLOUDY    57  45  64 SE8       30.42S
LYNCHBURG      PTCLDY    58  53  84 CALM      30.35S
DANVILLE       PTCLDY    58  56  93 CALM      30.34S
SOUTH BOSTON*  FAIR      58  54  84 CALM      30.34S
MARTINSVILLE   MOCLDY    54  52  94 CALM      30.37S
ROANOKE        MOCLDY    63  54  72 CALM      30.37S
BLACKSBURG     CLOUDY    60  52  74 E5        30.41R
DUBLIN*        PTCLDY    57  52  82 CALM      30.38S
MARION*        PTCLDY    58  47  68 E7        30.39R
HILLSVILLE*    CLOUDY    57  45  64 CALM      30.38S
RICHLANDS*     FAIR      62  23  22 SE6       30.34S
WISE*          PTCLDY    61  45  55 S5        30.34R
ABINGDON*      PTCLDY    62  48  58 E5        30.32S
$$

MDZ021>025-VAZ099-100-220300-
SOUTHERN MARYLAND AND THE DELMARVA PENINSULA

CITY           SKY/WX    TMP DP  RH WIND       PRES   REMARKS
PATUXENT RIVER PTCLDY    53  49  86 CALM      30.36S
BAY BRIDGE APT CLOUDY    59  54  82 E5        30.36S
LEONARDTOWN    NOT AVBL
DOVER          CLEAR     58  58 100 S3        30.37R
GEORGETOWN     PTCLDY    59  53  80 CALM      30.38S
EASTON         MOCLDY    55  50  82 CALM      30.41R
CAMBRIDGE      CLEAR     55  50  82 CALM      30.37S
SALISBURY      PTCLDY    55  54  96 CALM      30.37S
OCEAN CITY     CLOUDY    56  55  97 CALM      30.38S
WALLOPS ISLAND CLOUDY    58  57  97 CALM      30.38S
ACCOMACK*      CLEAR     55  54  97 CALM      30.37S
$$

NCZ012>017-030>032-220300-
NORTH CENTRAL AND EASTERN NORTH CAROLINA

CITY           SKY/WX    TMP DP  RH WIND       PRES   REMARKS
ROANOKE RAPIDS FAIR      59  59 100 CALM      30.34S
RALEIGH        CLOUDY    60  55  83 CALM      30.35R
ELIZABETH CITY CLOUDY    63  59  87 E3        30.36S
AHOSKIE*       PTCLDY    62  55  80 CALM      30.36R
EDENTON*       CLOUDY    61  58  91 CALM      30.37R
CURRITUCK*     CLOUDY    59  57  94 CALM      30.37S
KILL DEVIL HLS CLOUDY    65  55  67 CALM      30.35S
MANTEO         CLOUDY   N/A N/A N/A NE3       30.36S
CAPE HATTERAS  CLOUDY    67  62  84 NE5       30.35S
TARBORO*       NOT AVBL
GOLDSBORO      CLOUDY    62  55  80 E5        30.32S
WASHINGTON     CLOUDY    62  59  91 CALM      30.35S
GREENVILLE     MOCLDY    64  59  82 SE3       30.35R
NEW BERN       CLOUDY    61  61 100 CALM      30.36R
WILMINGTON     CLOUDY    62  61  96 CALM      30.33S
$$

VAZ048-220300-
ELSEWHERE

CITY           SKY/WX    TMP DP  RH WIND       PRES   REMARKS
HARRISBURG PA  MOCLDY    56  50  80 CALM      30.35R
BALTIMORE      PTCLDY    54  50  86 CALM      30.36R
ANNAPOLIS      CLOUDY    59  56  89 CALM      30.36S
ANDREWS AFB    CLOUDY    55  48  79 CALM      30.35S
PHILADELPHIA   MOCLDY    63  44  50 SW3       30.37S
HENDERSON NC   CLOUDY    58  52  80 CALM      30.35R
GREENSBORO     CLOUDY    62  56  80 CALM      30.33S
ROCKY MOUNT    CLOUDY    59  59 100 CALM      30.34S
$$

VAZ100-220300-
MARINE

STATION/POSITION TIME  TEMP    WIND        PRES    WAVE   SWELL
                       AIR SEA DIR/SP/G            HT/PER HT/PER
                 (UTC) (F)     (DEG/KT/KT) (MB)    (FT/S) (FT/S)
BRANDYWINE LGT   0148          190/ 10/ 11 1028.8R
CAPE MAY NJ      0148   63 66  130/  4/  5 1028.0R
LEWES DE         0148          220/  3/  5 1028.2S
15NM E FENWICK I 0150   67 68  150/  6/  6 1029.1S   2/ 9   2/ 9
OCEAN-CITY-INLET 0148          180/  3/  4 1029.0S
WACHAPREAGUE VA  0148   59 68   CALM  /  1 1028.3F
THOMAS POINT MD  0200   67 68  140/  5/  6   N/A
GOOSES REEF MD   0200   68 69  130/  6/  6 1027.9    0
COVE POINT MD    0148   68     180/  5/  6 1028.7R
SOLOMONS ISLAND  0148          360/  1/  2 1027.7S
BISHOPS HEAD MD  0148   66 68  150/  8/ 10 1028.6R
PINEY POINT MD   0118          120/  4/  5   N/A
POTOMAC MD       0200   69 69  150/ 10/ 12 1027.4    1
CAMBRIDGE MD     0148                      1029.1R
LEWISETTA VA     0148   63 66  190/  3/  3 1027.9F
RAPPAHANNOCK LGT 0148          110/  7/  7 1028.8S
STINGRAY PT      0200   68 69  170/  8/ 10 1028.4    1/ 2
YORK RVR RNG VA  0148   69     170/  5/  6 1028.5S
YORKTOWN VA      0148   65 70  180/  3/  4 1027.8R
JAMESTOWN VA     0200      69  130/  6/  6   N/A     0
DOMINION TERM VA 0148   68     140/  5/  6 1028.3R
KIPTOPEKE VA     0148          110/  3/  4   N/A
CAPE HENRY VA    0148   68     110/  8/ 10   N/A
WILLOUBY STN VA  0148          150/  3/  3 1028.0S
S CRANEY ISL VA  0148   67     120/  3/  5 1027.8F
CAPE HENRY BUOY  0200      70                N/A     2/ 8
1ST LANDING BUOY 0200   68 69              1027.9    1/ 3
CAPE CHARLES BUO 0151      70                N/A     2/ 8
64NM E OF VA BCH 0150   68 69   50/  2/  4 1028.7R   3/ 8   3/ 8
DUCK PIER NC     0148   69 70   80/  7/  8 1027.8R
44100 DUCK FRF   0135      71                N/A     2/ 9
44056 DUCK FRF   0200      70                N/A     2/ 8
OREGON INLET NC  0136   69 71   50/  8/  9 1027.7F
HATTERAS NC      0148   69 73   40/  5/  6 1027.5R
DIAMOND SHLS NC  0150   73 81  350/  8/ 12 1027.2R   3/ 8   2/ 8
CAPE LOOKOUT NC  0200   73      60/  9/ 10 1027.1R
$$



USA.gov is the U.S. government's official web portal to all federal, state and local government web resources and services.